• In Hungary
  • List of Countries
  • For 7 days
  • Water Temperature
  • Satellite Maps
  • Weather Map
  • News
  • Weather Widgets
  • user-avatar
    Login

    Hourly Weather Nashua

    Today, 20 October, Friday

    Time Temperature Precipitation Wind Pressure Humidity
    00:00 +16°C° 0 mm 3 mps 758 mmHg 64%
    01:00 +14°C° 0 mm 3 mps 758 mmHg 67%
    02:00 +14°C° 0 mm 3 mps 758 mmHg 68%
    03:00 +13°C° 0 mm 3 mps 758 mmHg 68%
    04:00 +12°C° 0 mm 3 mps 758 mmHg 68%
    05:00 +12°C° 0 mm 3 mps 759 mmHg 64%
    06:00 +11°C° 0 mm 3 mps 759 mmHg 60%
    07:00 +11°C° 0 mm 3 mps 760 mmHg 55%
    08:00 +13°C° 0 mm 3 mps 760 mmHg 49%
    09:00 +15°C° 0 mm 4 mps 760 mmHg 43%
    10:00 +17°C° 0 mm 4 mps 760 mmHg 37%
    11:00 +18°C° 0 mm 4 mps 760 mmHg 35%
    12:00 +19°C° 0 mm 4 mps 759 mmHg 34%
    13:00 +20°C° 0 mm 4 mps 759 mmHg 32%
    14:00 +20°C° 0 mm 4 mps 759 mmHg 34%
    15:00 +20°C° 0 mm 3 mps 759 mmHg 36%
    16:00 +19°C° 0 mm 3 mps 759 mmHg 38%
    17:00 +18°C° 0 mm 2 mps 760 mmHg 41%
    18:00 +16°C° 0 mm 2 mps 761 mmHg 45%
    19:00 +14°C° 0 mm 2 mps 761 mmHg 48%
    20:00 +14°C° 0 mm 2 mps 762 mmHg 50%
    21:00 +13°C° 0 mm 2 mps 762 mmHg 52%
    22:00 +13°C° 0 mm 2 mps 763 mmHg 53%
    23:00 +12°C° 0 mm 2 mps 763 mmHg 54%

    Tomorrow, 21 October, Saturday

    Time Temperature Precipitation Wind Pressure Humidity
    00:00 +12°C° 0 mm 1 mps 763 mmHg 55%
    01:00 +12°C° 0 mm 1 mps 763 mmHg 56%
    02:00 +11°C° 0 mm 1 mps 763 mmHg 56%
    03:00 +11°C° 0 mm 1 mps 764 mmHg 56%
    04:00 +11°C° 0 mm 1 mps 764 mmHg 56%
    05:00 +11°C° 0 mm 1 mps 764 mmHg 56%
    06:00 +12°C° 0 mm 1 mps 765 mmHg 55%
    07:00 +12°C° 0 mm 1 mps 765 mmHg 55%
    08:00 +15°C° 0 mm 2 mps 765 mmHg 48%
    09:00 +18°C° 0 mm 2 mps 765 mmHg 40%
    10:00 +21°C° 0 mm 2 mps 765 mmHg 33%
    11:00 +23°C° 0 mm 2 mps 765 mmHg 31%
    12:00 +25°C° 0 mm 2 mps 765 mmHg 29%
    13:00 +26°C° 0 mm 2 mps 764 mmHg 28%
    14:00 +25°C° 0 mm 2 mps 764 mmHg 32%
    15:00 +24°C° 0 mm 1 mps 765 mmHg 37%
    16:00 +24°C° 0 mm 1 mps 765 mmHg 41%
    17:00 +22°C° 0 mm 1 mps 765 mmHg 46%
    18:00 +20°C° 0 mm 1 mps 766 mmHg 50%
    19:00 +18°C° 0 mm 1 mps 766 mmHg 55%
    20:00 +16°C° 0 mm 1 mps 766 mmHg 56%
    21:00 +16°C° 0 mm 1 mps 766 mmHg 57%
    22:00 +15°C° 0 mm 1 mps 767 mmHg 59%
    23:00 +15°C° 0 mm 1 mps 767 mmHg 61%

    Day after tomorrow, 22 October, Sunday

    Time Temperature Precipitation Wind Pressure Humidity
    00:00 +13°C° 0 mm 0 mps 767 mmHg 63%
    01:00 +13°C° 0 mm 0 mps 767 mmHg 64%
    02:00 +12°C° 0 mm 0 mps 767 mmHg 66%
    03:00 +12°C° 0 mm 0 mps 767 mmHg 67%
    04:00 +12°C° 0 mm 0 mps 767 mmHg 68%
    05:00 +12°C° 0 mm 0 mps 767 mmHg 68%
    06:00 +12°C° 0 mm 0 mps 767 mmHg 68%
    07:00 +12°C° 0 mm 0 mps 768 mmHg 68%
    08:00 +15°C° 0 mm 0 mps 768 mmHg 60%
    09:00 +19°C° 0 mm 1 mps 768 mmHg 53%
    10:00 +21°C° 0 mm 1 mps 768 mmHg 46%
    11:00 +23°C° 0 mm 1 mps 767 mmHg 43%
    12:00 +24°C° 0 mm 2 mps 767 mmHg 39%
    13:00 +25°C° 0 mm 2 mps 767 mmHg 36%
    14:00 +24°C° 0 mm 2 mps 766 mmHg 39%
    15:00 +24°C° 0 mm 2 mps 766 mmHg 42%
    16:00 +23°C° 0 mm 2 mps 766 mmHg 46%
    17:00 +20°C° 0 mm 2 mps 766 mmHg 50%
    18:00 +19°C° 0 mm 2 mps 766 mmHg 54%
    19:00 +17°C° 0 mm 2 mps 766 mmHg 58%
    20:00 +16°C° 0 mm 2 mps 766 mmHg 63%
    21:00 +16°C° 0 mm 2 mps 766 mmHg 68%
    22:00 +15°C° 0 mm 2 mps 766 mmHg 72%
    23:00 +15°C° 0 mm 2 mps 766 mmHg 77%

    23 October, Monday

    Time Temperature Precipitation Wind Pressure Humidity
    00:00 +15°C° 0 mm 2 mps 766 mmHg 81%
    01:00 +15°C° 0 mm 2 mps 765 mmHg 85%
    02:00 +15°C° 0 mm 2 mps 765 mmHg 88%
    03:00 +15°C° 0 mm 2 mps 765 mmHg 91%
    04:00 +15°C° 0 mm 2 mps 765 mmHg 94%
    05:00 +15°C° 0 mm 2 mps 765 mmHg 94%
    06:00 +15°C° 0 mm 2 mps 764 mmHg 94%
    07:00 +15°C° 0 mm 2 mps 764 mmHg 94%
    08:00 +18°C° 0 mm 3 mps 764 mmHg 82%
    09:00 +20°C° 0 mm 4 mps 764 mmHg 70%
    10:00 +23°C° 0 mm 4 mps 763 mmHg 58%
    11:00 +23°C° 0 mm 4 mps 763 mmHg 54%
    12:00 +25°C° 0 mm 5 mps 762 mmHg 51%
    13:00 +26°C° 0 mm 5 mps 761 mmHg 47%
    14:00 +25°C° 0 mm 4 mps 761 mmHg 50%
    15:00 +25°C° 0 mm 4 mps 761 mmHg 54%
    16:00 +24°C° 0 mm 3 mps 760 mmHg 57%
    17:00 +22°C° 0 mm 4 mps 760 mmHg 63%
    18:00 +20°C° 0 mm 4 mps 760 mmHg 69%
    19:00 +19°C° 0 mm 4 mps 760 mmHg 75%
    20:00 +19°C° 0 mm 4 mps 760 mmHg 77%
    21:00 +19°C° 0 mm 4 mps 760 mmHg 79%
    22:00 +18°C° 0 mm 4 mps 760 mmHg 82%
    23:00 +18°C° 0 mm 4 mps 759 mmHg 83%

    24 October, Tuesday

    Time Temperature Precipitation Wind Pressure Humidity
    00:00 +18°C° 0 mm 3 mps 759 mmHg 85%
    01:00 +18°C° 0 mm 3 mps 758 mmHg 87%
    02:00 +18°C° 0 mm 3 mps 758 mmHg 89%
    03:00 +18°C° 0 mm 3 mps 758 mmHg 91%
    04:00 +17°C° 0 mm 3 mps 757 mmHg 93%
    05:00 +18°C° 0 mm 3 mps 757 mmHg 91%
    06:00 +18°C° 0 mm 3 mps 757 mmHg 90%
    07:00 +19°C° 0 mm 3 mps 756 mmHg 88%
    08:00 +20°C° 0 mm 4 mps 756 mmHg 83%
    09:00 +21°C° 0 mm 4 mps 756 mmHg 77%
    10:00 +22°C° 0 mm 5 mps 755 mmHg 72%
    11:00 +23°C° 0 mm 5 mps 754 mmHg 67%
    12:00 +24°C° 0 mm 6 mps 753 mmHg 62%
    13:00 +26°C° 0 mm 6 mps 753 mmHg 57%
    14:00 +24°C° 0.2 mm 6 mps 752 mmHg 65%
    15:00 +23°C° 0.2 mm 6 mps 752 mmHg 72%
    16:00 +22°C° 0.2 mm 6 mps 751 mmHg 79%
    17:00 +22°C° 0.1 mm 6 mps 751 mmHg 81%
    18:00 +21°C° 0.1 mm 5 mps 751 mmHg 83%
    19:00 +21°C° 0.1 mm 5 mps 751 mmHg 84%
    20:00 +21°C° 0.2 mm 5 mps 750 mmHg 84%
    21:00 +21°C° 0.2 mm 6 mps 750 mmHg 84%
    22:00 +21°C° 0.2 mm 6 mps 749 mmHg 84%
    23:00 +21°C° 0.6 mm 6 mps 748 mmHg 85%

    25 October, Wednesday

    Time Temperature Precipitation Wind Pressure Humidity
    00:00 +21°C° 0.6 mm 6 mps 747 mmHg 86%
    01:00 +21°C° 0.6 mm 7 mps 747 mmHg 87%
    02:00 +21°C° 1.1 mm 7 mps 746 mmHg 87%
    03:00 +21°C° 1.1 mm 7 mps 746 mmHg 87%
    04:00 +21°C° 1.1 mm 7 mps 745 mmHg 87%
    05:00 +21°C° 0.8 mm 6 mps 745 mmHg 88%
    06:00 +21°C° 0.8 mm 6 mps 745 mmHg 88%
    07:00 +21°C° 0.8 mm 6 mps 745 mmHg 89%
    08:00 +21°C° 0.3 mm 6 mps 744 mmHg 89%
    09:00 +21°C° 0.3 mm 6 mps 744 mmHg 88%
    10:00 +21°C° 0.3 mm 6 mps 744 mmHg 88%
    11:00 +21°C° 0.5 mm 5 mps 743 mmHg 86%
    12:00 +21°C° 0.5 mm 5 mps 743 mmHg 85%
    13:00 +22°C° 0.5 mm 5 mps 743 mmHg 83%
    14:00 +21°C° 0.3 mm 5 mps 743 mmHg 83%
    15:00 +20°C° 0.3 mm 4 mps 744 mmHg 83%
    16:00 +19°C° 0.3 mm 4 mps 744 mmHg 83%
    17:00 +18°C° 0.1 mm 3 mps 745 mmHg 84%
    18:00 +17°C° 0.1 mm 3 mps 746 mmHg 85%
    19:00 +17°C° 0.1 mm 2 mps 747 mmHg 86%
    20:00 +16°C° 0 mm 2 mps 747 mmHg 87%
    21:00 +15°C° 0 mm 2 mps 747 mmHg 88%
    22:00 +14°C° 0 mm 1 mps 748 mmHg 90%
    23:00 +14°C° 0 mm 1 mps 748 mmHg 89%
    Show more